Brno, Czech Republic

5:32 PM CEST on September 22, 2017 (GMT +0200)
Turany

Weather History for LKTB - June, 2013

Change the Weather History Date:

Tuesday, June 4, 2013

  Actual Average Record
Temperature  
Mean Temperature 56 °F -  
Max Temperature 63 °F 73 °F - ()
Min Temperature 49 °F 52 °F - ()
Degree Days  
Heating Degree Days 9    
Growing Degree Days 6 (Base 50)    
Moisture  
Dew Point 52 °F    
Average Humidity 83    
Maximum Humidity 94    
Minimum Humidity 72    
Precipitation  
Precipitation 0.03 in 0.09 in - ()
Sea Level Pressure  
Sea Level Pressure 29.97 in    
Wind  
Wind Speed 7 mph ()    
Max Wind Speed 15 mph    
Max Gust Speed -    
Visibility 6.6 miles    
Events Rain    
T = Trace of Precipitation, MM = Missing Value Source: Averaged Metar Reports

Daily Weather History Graph

Daily Weather History Graph

Search for Another Location

Airport or City:

Trip Planner

Search our weather history database for the weather conditions in past years. The results will help you decide how hot, cold, wet, or windy it might be!

Date:

Astronomy

Jun. 04, 2013 Rise Set
Actual Time 4:51 AM CEST 8:52 PM CEST
Civil Twilight 4:09 AM CEST 9:34 PM CEST
Nautical Twilight 3:10 AM CEST 10:33 PM CEST
Astronomical Twilight 1:26 AM CEST 12:21 AM CEST
Moon 2:31 AM CEST (6/4) 4:47 PM CEST (6/4)
Length of Visible Light 17h 25m
Length of Day
16h 01m
Waning Crescent, 16% of the Moon is Illuminated
Jun 4
Waning Crescent
Jun 8
New
Jun 16
First Quarter
Jun 23
Full
Jun 30
Last Quarter

Hourly Weather History & Observations

Time (CEST) Temp. Dew Point Humidity Pressure Visibility Wind Dir Wind Speed Gust Speed Precip Events Conditions
12:00 AM 51.8 °F 48.2 °F 88% 30.01 in 6.2 mi WNW 9.2 mph - N/A   Overcast
12:30 AM 50.0 °F 48.2 °F 94% 29.98 in 6.2 mi West 8.1 mph - N/A   Scattered Clouds
1:01 AM 51.8 °F 48.2 °F 88% 29.98 in - WNW 13.8 mph - N/A   Clear
1:30 AM 51.8 °F 48.2 °F 88% 29.98 in - WNW 12.7 mph - N/A   Clear
2:00 AM 51 °F 48 °F 86% 29.98 in 12 mi WNW 8.9 mph - -   Partly Cloudy
2:00 AM 51.8 °F 48.2 °F 88% 29.98 in - WNW 9.2 mph - N/A   Clear
2:30 AM 51.8 °F 48.2 °F 88% 29.98 in 6.2 mi WNW 6.9 mph - N/A   Scattered Clouds
2:55 AM 51.8 °F 48.2 °F 88% 29.98 in 6.2 mi WNW 6.9 mph - N/A Rain Light Rain
3:00 AM 51.8 °F 48.2 °F 88% 29.98 in 6.2 mi WNW 5.8 mph - N/A Rain Light Rain
3:30 AM 51.8 °F 50.0 °F 94% 29.95 in 6.2 mi WNW 6.9 mph - N/A Rain Light Rain
4:00 AM 51.8 °F 50.0 °F 94% 29.95 in 6.2 mi WSW 6.9 mph - N/A Rain Light Rain
4:30 AM 51.8 °F 50.0 °F 94% 29.95 in 5.6 mi WSW 5.8 mph - N/A Rain Light Rain
5:00 AM 51.8 °F 50.0 °F 94% 29.95 in 6.2 mi WSW 4.6 mph - N/A   Mostly Cloudy
5:25 AM 51.8 °F 50.0 °F 94% 29.95 in 6.2 mi Variable 1.2 mph - N/A Rain Light Rain
5:30 AM 51.8 °F 50.0 °F 94% 29.95 in 6.2 mi Variable 1.2 mph - N/A Rain Light Rain
6:00 AM 53.6 °F 50.0 °F 88% 29.95 in 6.2 mi NW 6.9 mph - N/A Rain Light Rain
6:30 AM 53.6 °F 50.0 °F 88% 29.95 in 6.2 mi WNW 3.5 mph - N/A   Overcast
6:51 AM 53.6 °F 50.0 °F 88% 29.95 in 6.2 mi WNW 5.8 mph - N/A Rain Light Rain
7:00 AM 53.6 °F 50.0 °F 88% 29.95 in 6.2 mi WNW 4.6 mph - N/A Rain Light Rain
7:30 AM 53.6 °F 50.0 °F 88% 29.95 in 6.2 mi NW 8.1 mph - N/A Rain Light Rain
8:00 AM 53 °F 50 °F 86% 29.97 in 9 mi NNW 6.7 mph - - Rain Rain
8:00 AM 53.6 °F 50.0 °F 88% 29.95 in 6.2 mi NNW 8.1 mph - N/A Rain Rain
8:30 AM 53.6 °F 50.0 °F 88% 29.95 in 6.2 mi Variable 2.3 mph - N/A Rain Rain
9:00 AM 55.4 °F 51.8 °F 88% 29.95 in 6.2 mi Variable 2.3 mph - N/A   Mostly Cloudy
9:30 AM 55.4 °F 51.8 °F 88% 29.95 in 6.2 mi NW 5.8 mph - N/A   Mostly Cloudy
10:00 AM 57.2 °F 51.8 °F 82% 29.98 in 6.2 mi NW 4.6 mph - N/A   Overcast
10:19 AM 55.4 °F 50.0 °F 82% 29.98 in 6.2 mi North 9.2 mph - N/A Rain Rain
10:30 AM 55.4 °F 50.0 °F 82% 29.98 in 6.2 mi NNW 8.1 mph - N/A Rain Light Rain
11:00 AM 57.2 °F 51.8 °F 82% 29.98 in 6.2 mi NW 4.6 mph - N/A Rain Light Rain
11:30 AM 57.2 °F 51.8 °F 82% 29.98 in 6.2 mi WNW 5.8 mph - N/A   Overcast
12:00 PM 57.2 °F 51.8 °F 82% 29.98 in 6.2 mi Variable 2.3 mph - N/A   Overcast
12:30 PM 59.0 °F 51.8 °F 77% 29.98 in 6.2 mi NW 3.5 mph - N/A   Overcast
12:41 PM 59.0 °F 51.8 °F 77% 29.98 in 6.2 mi Variable 2.3 mph - N/A Rain Light Rain
1:00 PM 59.0 °F 51.8 °F 77% 29.95 in 6.2 mi North 3.5 mph - N/A Rain Light Rain
1:30 PM 59.0 °F 53.6 °F 82% 29.95 in 6.2 mi NW 5.8 mph - N/A Rain Light Rain
2:00 PM 60 °F 54 °F 75% 29.95 in 16 mi NW 8.9 mph - - Rain Light Rain
2:00 PM 60.8 °F 53.6 °F 77% 29.95 in 6.2 mi NNW 8.1 mph - N/A   Mostly Cloudy
2:30 PM 60.8 °F 53.6 °F 77% 29.95 in 6.2 mi NW 10.4 mph - N/A   Overcast
3:00 PM 62.6 °F 53.6 °F 72% 29.95 in 6.2 mi WNW 6.9 mph - N/A   Overcast
3:30 PM 60.8 °F 53.6 °F 77% 29.95 in 6.2 mi NNW 9.2 mph - N/A   Overcast
4:00 PM 62.6 °F 53.6 °F 72% 29.95 in 6.2 mi North 9.2 mph - N/A   Mostly Cloudy
4:30 PM 62.6 °F 53.6 °F 72% 29.95 in 6.2 mi NW 15.0 mph - N/A   Mostly Cloudy
5:00 PM 62.6 °F 55.4 °F 77% 29.95 in 6.2 mi NNW 11.5 mph - N/A   Overcast
5:30 PM 62.6 °F 53.6 °F 72% 29.95 in 6.2 mi NNW 12.7 mph - N/A   Mostly Cloudy
6:00 PM 62.6 °F 53.6 °F 72% 29.95 in - NNW 15.0 mph - N/A   Clear
6:30 PM 62.6 °F 53.6 °F 72% 29.95 in - NNW 12.7 mph - N/A   Clear
7:00 PM 62.6 °F 53.6 °F 72% 29.95 in 6.2 mi NNW 11.5 mph - N/A   Mostly Cloudy
7:30 PM 60.8 °F 53.6 °F 77% 29.95 in 6.2 mi NNW 10.4 mph - N/A   Mostly Cloudy
8:00 PM 60 °F 54 °F 74% 29.96 in 11 mi NW 6.7 mph - -   Mostly Cloudy
8:00 PM 60.8 °F 53.6 °F 77% 29.95 in 6.2 mi NNW 8.1 mph - N/A   Partly Cloudy
8:30 PM 60.8 °F 53.6 °F 77% 29.98 in 6.2 mi NNW 10.4 mph - N/A   Scattered Clouds
9:00 PM 59.0 °F 53.6 °F 82% 29.98 in 6.2 mi NNW 10.4 mph - N/A   Mostly Cloudy
9:05 PM 59.0 °F 53.6 °F 82% 29.98 in 6.2 mi NNW 10.4 mph - N/A Rain Light Rain
9:30 PM 57.2 °F 53.6 °F 88% 29.98 in 6.2 mi NW 5.8 mph - N/A Rain Light Rain
10:00 PM 57.2 °F 53.6 °F 88% 30.01 in 6.2 mi NNW 5.8 mph - N/A   Partly Cloudy
10:30 PM 57.2 °F 53.6 °F 88% 30.01 in 6.2 mi NW 5.8 mph - N/A   Partly Cloudy
11:00 PM 57.2 °F 53.6 °F 88% 30.01 in 6.2 mi NW 6.9 mph - N/A   Partly Cloudy
11:30 PM 57.2 °F 53.6 °F 88% 30.01 in - WNW 8.1 mph - N/A   Clear